EW2807 Weather Reports


time (UTC)temp
F
wind
direction
speed
knots
gust
knots
rain 1hr
in
rain 24hr
in
rain mn
in
humidity
%
barometer
mb
20260510164333 57 176 0.9 6.1 0.00 0.03 0.00 37 1015.3
20260510163825 57 90 1.7 6.1 0.00 0.03 0.00 36 1015.3
20260510163317 57 62 0.9 6.1 0.00 0.03 0.00 36 1015.2
20260510162827 56 124 0.9 9.6 0.00 0.03 0.00 40 1015.2
20260510161728 56 129 0.9 4.3 0.00 0.03 0.00 38 1015.2
20260510161222 56 122 0.9 4.3 0.00 0.03 0.00 39 1015.2
20260510160707 56 236 0.9 7.8 0.00 0.03 0.00 46 1015.2
20260510155555 55 182 0.9 9.6 0.00 0.03 0.00 39 1015.1
20260510155057 55 128 1.7 7.0 0.00 0.03 0.00 42 1015.0
20260510154556 55 162 0.9 7.0 0.00 0.03 0.00 41 1015.1
20260510154039 55 143 0.9 7.0 0.00 0.03 0.00 41 1015.0
20260510153541 55 151 1.7 6.1 0.00 0.03 0.00 40 1015.0
20260510153023 54 255 1.7 7.0 0.00 0.03 0.00 43 1014.9
20260510151903 54 103 0.9 7.0 0.00 0.03 0.00 40 1014.8
20260510151352 55 207 0.0 7.0 0.00 0.03 0.00 43 1014.7
20260510150236 54 146 0.9 5.2 0.00 0.03 0.00 41 1014.7
20260510145731 54 260 0.9 4.3 0.00 0.03 0.00 43 1014.6
20260510145225 54 114 0.9 4.3 0.00 0.03 0.00 40 1014.6
20260510144108 53 198 0.0 5.2 0.00 0.03 0.00 43 1014.6
20260510142955 53 61 0.0 4.3 0.00 0.03 0.00 41 1014.5
20260510141813 52 239 0.0 2.6 0.00 0.03 0.00 46 1014.4
20260510141307 52 198 0.9 3.5 0.00 0.03 0.00 43 1014.4
20260510140806 52 205 0.0 2.6 0.00 0.03 0.00 44 1014.3
20260510140310 52 61 0.0 0.9 0.00 0.03 0.00 46 1014.3
20260510135757 52 122 0.0 5.2 0.00 0.03 0.00 45 1014.2
20260510135250 51 91 0.0 3.5 0.00 0.03 0.00 46 1014.2
20260510134134 51 150 0.0 2.6 0.00 0.03 0.00 48 1014.2
20260510133638 50 167 0.0 0.0 0.00 0.03 0.00 52 1014.1
20260510133131 50 223 0.0 6.1 0.00 0.03 0.00 50 1014.1
20260510132623 49 158 0.9 6.1 0.00 0.03 0.00 48 1014.1
20260510132118 49 161 0.0 4.3 0.00 0.03 0.00 50 1014.1
20260510131606 49 150 0.0 4.3 0.00 0.03 0.00 51 1014.0
20260510131109 49 181 0.0 0.0 0.00 0.03 0.00 53 1014.0
20260510125940 47 220 1.7 6.1 0.00 0.03 0.00 57 1013.8
20260510125443 47 158 0.9 5.2 0.00 0.03 0.00 58 1013.8
20260510124931 46 166 0.0 4.3 0.00 0.03 0.00 62 1013.7
20260510124421 45 210 0.0 3.5 0.00 0.03 0.00 63 1013.7
20260510123914 45 188 0.0 1.7 0.00 0.03 0.00 65 1013.5
20260510123418 44 139 0.0 0.0 0.00 0.03 0.00 67 1013.5
20260510122927 44 176 0.0 1.7 0.00 0.03 0.00 68 1013.5
20260510122432 44 181 0.0 1.7 0.00 0.03 0.00 68 1013.5
20260510121936 43 158 0.0 2.6 0.00 0.03 0.00 69 1013.5
20260510121429 43 175 0.0 1.7 0.00 0.03 0.00 71 1013.5
20260510120914 43 212 0.0 2.6 0.00 0.03 0.00 72 1013.4
20260510115122 41 212 0.0 3.5 0.00 0.04 0.00 77 1013.3
20260510114619 41 171 0.0 3.5 0.00 0.04 0.00 80 1013.1
20260510114128 40 153 0.0 1.7 0.00 0.04 0.00 84 1013.1
20260510113011 38 161 0.0 0.0 0.00 0.04 0.00 92 1012.9
20260510112519 38 155 0.0 0.0 0.00 0.04 0.00 94 1012.8
20260510111352 36 165 0.0 0.0 0.00 0.04 0.00 95 1012.6
20260510110858 36 148 0.0 0.0 0.00 0.04 0.00 95 1012.5
20260510110339 35 136 0.0 0.0 0.00 0.04 0.00 95 1012.4
20260510105833 35 136 0.0 0.0 0.00 0.04 0.00 95 1012.4
20260510105323 34 111 0.0 0.9 0.00 0.04 0.00 95 1012.3
20260510104830 33 138 0.0 0.0 0.00 0.04 0.00 95 1012.2
20260510104313 33 138 0.0 0.0 0.00 0.04 0.00 94 1012.2
20260510103141 33 201 0.0 0.0 0.00 0.04 0.00 94 1012.1
20260510102627 33 201 0.0 0.0 0.00 0.04 0.00 94 1012.1
20260510102127 33 201 0.0 0.0 0.00 0.04 0.00 94 1012.0
20260510101636 33 201 0.0 0.0 0.00 0.04 0.00 94 1012.0
20260510101141 33 201 0.0 0.0 0.00 0.04 0.00 94 1011.9
20260510100622 33 201 0.0 0.0 0.00 0.04 0.00 94 1011.8
20260510100122 32 201 0.0 0.0 0.00 0.04 0.00 93 1011.7
20260510095012 33 201 0.0 0.0 0.00 0.04 0.00 93 1011.5
20260510094508 33 201 0.0 0.0 0.00 0.04 0.00 93 1011.4
20260510093333 33 201 0.0 0.0 0.00 0.04 0.00 93 1011.2
20260510092843 34 201 0.0 0.0 0.00 0.04 0.00 93 1011.2
20260510091710 34 201 0.0 0.0 0.00 0.04 0.00 93 1010.9
20260510085931 34 201 0.0 0.0 0.00 0.04 0.00 92 1010.9
20260510085435 34 201 0.0 0.0 0.00 0.04 0.00 92 1010.7
20260510084933 34 201 0.0 0.0 0.00 0.04 0.00 92 1010.6
20260510084417 34 201 0.0 0.0 0.00 0.04 0.00 91 1010.5
20260510083917 34 201 0.0 0.0 0.00 0.04 0.00 91 1010.4
20260510083418 34 201 0.0 0.0 0.00 0.04 0.00 91 1010.2
20260510082910 34 201 0.0 0.0 0.00 0.04 0.00 90 1010.1
20260510082352 35 201 0.0 0.0 0.00 0.04 0.00 90 1010.0
20260510081857 35 201 0.0 0.0 0.00 0.04 0.00 90 1009.9
20260510081344 35 201 0.0 0.0 0.00 0.04 0.00 90 1009.9
20260510080828 35 201 0.0 0.0 0.00 0.04 0.00 89 1009.8
20260510080331 35 201 0.0 0.0 0.00 0.04 0.00 89 1009.7
20260510075222 35 201 0.0 0.0 0.00 0.04 0.00 87 1009.5
20260510073457 36 201 0.0 0.0 0.00 0.04 0.00 85 1009.3
20260510072943 37 201 0.0 0.0 0.00 0.04 0.00 84 1009.3
20260510072446 37 201 0.0 0.0 0.00 0.04 0.00 83 1009.3
20260510071255 39 201 0.0 0.0 0.00 0.04 0.00 80 1009.1
20260510070803 40 201 0.0 0.0 0.00 0.04 0.00 79 1009.1
20260510070259 40 201 0.0 0.0 0.00 0.04 0.00 78 1009.0
20260510065759 41 201 0.0 0.0 0.00 0.04 0.00 76 1008.9
20260510065254 42 201 0.0 0.0 0.00 0.04 0.00 75 1008.9
20260510064755 43 201 0.0 0.0 0.00 0.04 0.00 73 1008.8
20260510063043 45 201 0.0 0.0 0.00 0.04 0.00 71 1008.5
20260510062533 45 168 0.0 0.0 0.00 0.04 0.00 70 1008.5
20260510062024 45 171 0.0 1.7 0.00 0.04 0.00 70 1008.4
20260510061527 45 166 0.0 0.0 0.00 0.04 0.00 70 1008.3
20260510060359 44 164 0.0 0.9 0.00 0.04 0.00 73 1008.1
20260510055905 44 167 0.0 3.5 0.00 0.04 0.00 73 1008.0
20260510055353 45 162 0.0 0.0 0.00 0.04 0.00 71 1008.0
20260510054834 45 162 0.0 0.0 0.00 0.04 0.00 71 1007.9
20260510054327 45 162 0.0 0.0 0.00 0.04 0.00 71 1007.8
20260510053834 45 163 0.0 0.0 0.00 0.04 0.00 71 1007.6
20260510053316 45 163 0.0 0.0 0.00 0.04 0.00 71 1007.5
20260510052821 45 163 0.0 0.0 0.00 0.04 0.00 72 1007.4
20260510051702 45 155 0.0 0.0 0.00 0.04 0.00 73 1007.4
20260510051155 45 191 0.0 0.0 0.00 0.04 0.00 74 1007.3
20260510050705 45 174 0.0 0.0 0.00 0.04 0.00 74 1007.2
20260510050156 45 176 0.0 0.0 0.00 0.04 0.00 74 1007.1
20260510045657 45 176 0.0 0.0 0.00 0.04 0.00 74 1007.0
20260510043848 46 176 0.0 0.0 0.00 0.04 0.00 76 1006.9
20260510043346 46 176 0.0 0.0 0.00 0.04 0.00 76 1006.8
20260510042236 46 176 0.0 0.0 0.00 0.04 0.00 73 1006.7
20260510041735 47 176 0.0 0.0 0.00 0.04 0.00 72 1006.6
20260510040002 50 176 0.0 0.0 0.00 0.04 0.05 67 1006.4
20260510034830 51 170 0.0 0.0 0.00 0.04 0.05 65 1006.2
20260510034316 51 170 0.0 0.0 0.00 0.04 0.05 64 1006.2
20260510033812 51 181 0.0 0.0 0.00 0.04 0.05 64 1006.1
20260510033319 52 228 0.0 1.7 0.00 0.04 0.05 63 1006.0
20260510032802 52 175 0.0 1.7 0.00 0.04 0.05 63 1006.0
20260510032245 52 169 0.0 2.6 0.00 0.04 0.05 62 1006.0
20260510031748 53 177 0.0 1.7 0.00 0.04 0.05 61 1005.9
20260510030638 53 171 0.0 2.6 0.00 0.04 0.05 60 1005.7
20260510030145 54 190 0.0 0.0 0.00 0.04 0.05 60 1005.6
20260510025627 54 168 0.0 8.7 0.00 0.04 0.05 60 1005.6
20260510025118 54 180 0.0 8.7 0.00 0.04 0.05 59 1005.6
20260510024609 55 195 0.9 8.7 0.00 0.04 0.05 59 1005.4
20260510024103 55 190 0.9 7.0 0.00 0.04 0.05 58 1005.3
20260510023547 56 207 0.9 7.0 0.00 0.04 0.05 57 1005.3
20260510023051 57 135 0.0 6.1 0.00 0.04 0.05 56 1005.1
20260510022545 57 232 0.0 4.3 0.00 0.04 0.05 53 1005.0
20260510022054 58 207 0.9 4.3 0.00 0.04 0.05 49 1004.8
20260510021540 58 173 0.0 4.3 0.00 0.04 0.05 49 1004.6
20260510021023 58 150 0.0 4.3 0.00 0.04 0.05 49 1004.5
20260510020517 58 182 0.9 9.6 0.00 0.04 0.05 49 1004.1
20260510020007 58 168 1.7 9.6 0.00 0.04 0.05 49 1004.1
20260510015451 58 149 2.6 9.6 0.00 0.04 0.05 48 1003.9
20260510014949 58 137 2.6 9.6 0.00 0.04 0.05 49 1003.9
20260510014433 57 176 0.9 7.0 0.00 0.04 0.05 53 1003.5
20260510013942 56 194 0.0 3.5 0.00 0.04 0.05 58 1003.2
20260510013430 54 144 0.0 4.3 0.00 0.04 0.05 61 1003.1
20260510012935 52 170 0.0 1.7 0.00 0.04 0.05 68 1002.8
20260510012423 52 148 0.0 0.0 0.00 0.04 0.05 69 1002.7
20260510011911 53 148 0.0 0.0 0.00 0.04 0.05 68 1002.6
20260510011359 53 148 0.0 0.0 0.00 0.04 0.05 67 1002.4
20260510010254 53 148 0.0 0.0 0.00 0.04 0.05 68 1002.3
20260510005138 54 148 0.0 0.0 0.00 0.04 0.05 65 1002.1
20260510004620 55 148 0.0 0.0 0.00 0.04 0.05 63 1002.0
20260510002832 59 148 0.0 0.0 0.00 0.04 0.05 54 1001.7
20260510002334 60 148 0.0 0.0 0.00 0.04 0.05 52 1001.6
20260510001822 61 148 0.0 0.0 0.00 0.04 0.05 50 1001.6
20260510000639 62 160 0.0 0.0 0.00 0.04 0.05 46 1001.3
20260509235519 63 134 0.9 7.0 0.00 0.04 0.05 44 1001.3
20260509235024 64 206 0.9 7.0 0.00 0.04 0.05 44 1001.3
20260509234531 64 167 0.9 9.6 0.00 0.04 0.05 43 1001.2
20260509233347 65 93 2.6 9.6 0.00 0.04 0.05 41 1001.0
20260509232838 66 115 1.7 9.6 0.00 0.04 0.05 40 1000.9
20260509232320 67 138 0.9 8.7 0.00 0.04 0.05 40 1000.9
20260509231821 67 165 2.6 8.7 0.00 0.04 0.05 38 1000.7
20260509231312 67 184 2.6 16.5 0.00 0.04 0.05 40 1000.9
20260509230803 67 60 2.6 16.5 0.00 0.04 0.05 38 1000.7
20260509225645 67 221 2.6 11.3 0.00 0.04 0.05 38 1000.5
20260509224528 66 274 2.6 9.6 0.00 0.04 0.05 40 1000.1
20260509222757 68 122 1.7 9.6 0.00 0.04 0.05 38 999.9
20260509222243 68 61 1.7 13.9 0.00 0.04 0.05 38 999.7
20260509221729 68 290 2.6 13.9 0.00 0.04 0.05 39 999.6
20260509221238 68 60 2.6 13.9 0.00 0.04 0.05 38 999.5
20260509220718 68 141 2.6 13.9 0.00 0.04 0.05 39 999.5
20260509220208 68 101 1.7 11.3 0.00 0.04 0.05 40 999.5
20260509215709 68 262 2.6 11.3 0.00 0.04 0.05 39 999.5
20260509215201 68 61 3.5 11.3 0.00 0.04 0.05 38 999.2
20260509214651 68 145 2.6 11.3 0.00 0.04 0.05 38 999.3
20260509212855 69 103 2.6 11.3 0.00 0.04 0.05 37 999.0
20260509211730 69 77 1.7 13.0 0.00 0.04 0.05 41 999.1
20260509210629 68 329 3.5 13.9 0.00 0.04 0.05 39 999.0
20260509210135 68 64 2.6 13.9 0.00 0.04 0.05 42 999.0
20260509205620 68 60 3.5 13.9 0.00 0.04 0.05 41 999.1
20260509205114 67 60 3.5 13.9 0.00 0.04 0.05 41 999.1
20260509203957 68 330 2.6 10.4 0.00 0.04 0.05 42 999.3
20260509202856 68 60 2.6 9.6 0.00 0.04 0.05 44 999.4
20260509201733 67 169 1.7 7.8 0.00 0.04 0.05 46 999.4
20260509200606 66 145 0.9 7.0 0.00 0.04 0.05 60 999.7
20260509200116 66 159 0.9 7.0 0.00 0.04 0.05 63 999.7
20260509195002 64 157 0.0 3.5 0.00 0.04 0.05 71 999.6
20260509194502 63 129 0.0 3.5 0.00 0.04 0.05 69 999.7
20260509194003 62 245 0.0 2.6 0.00 0.04 0.05 72 999.8
20260509193505 61 184 0.0 5.2 0.00 0.04 0.05 76 999.9
20260509192953 59 93 0.9 5.2 0.00 0.04 0.05 78 999.9
20260509192457 58 329 0.9 5.2 0.00 0.04 0.05 79 1000.0
20260509191952 58 61 0.9 5.2 0.00 0.04 0.05 83 1000.1
20260509191438 57 61 0.9 4.3 0.00 0.04 0.05 83 1000.4
20260509185702 56 328 1.7 8.7 0.20 0.04 0.05 78 1000.3
20260509185149 59 104 3.5 14.8 0.45 0.02 0.04 72 1000.4
20260509184635 62 137 3.5 14.8 0.00 0.01 0.01 62 1000.4
20260509184144 65 189 2.6 14.8 0.00 0.01 0.01 52 1000.1
20260509183625 66 125 2.6 14.8 0.00 0.01 0.01 53 999.6
20260509183119 66 61 1.7 10.4 0.00 0.01 0.01 53 999.0
20260509182605 66 61 2.6 10.4 0.00 0.01 0.01 52 998.9
20260509182049 67 329 2.6 10.4 0.00 0.01 0.01 52 998.8
20260509181536 67 61 2.6 11.3 0.00 0.01 0.01 52 998.6
20260509181032 67 61 2.6 11.3 0.00 0.01 0.01 52 998.6
20260509180537 67 86 3.5 11.3 0.00 0.01 0.01 52 998.6
20260509180036 67 63 3.5 11.3 0.00 0.01 0.01 50 998.7
20260509175525 68 96 2.6 11.3 0.00 0.01 0.01 50 998.6
20260509174403 68 117 2.6 11.3 0.00 0.01 0.01 54 999.0
20260509173905 69 61 3.5 9.6 0.00 0.01 0.01 53 998.9
20260509173359 69 61 3.5 9.6 0.00 0.01 0.01 52 998.9
20260509172841 68 61 3.5 11.3 0.00 0.01 0.01 53 999.0
20260509172341 68 61 2.6 11.3 0.00 0.01 0.01 53 999.1
20260509171832 69 61 2.6 13.0 0.00 0.01 0.01 53 999.0
20260509171341 69 61 2.6 13.0 0.00 0.01 0.01 51 999.2
20260509170826 69 61 3.5 13.0 0.00 0.01 0.01 53 999.1
20260509165659 67 61 3.5 11.3 0.00 0.01 0.01 55 999.1
20260509165205 66 75 2.6 8.7 0.00 0.01 0.01 58 999.2
20260509164711 66 329 2.6 8.7 0.00 0.01 0.01 57 999.3